Location: Newark
(33.6333°S, 78.8500°W)
Time: 21:25:03
(UTC+00:00)

Courier 1B - Pass Details

Date: 22 September 2019
Orbit: 962 x 1209 km, 28.3° (Epoch: 17 October)

Event Time Altitude Azimuth Distance (km) Brightness Sun altitude
Rises 02:13:35 0° 270° (W) 3,925 11.4 -37.3°
Reaches altitude 10° 02:16:32 10° 276° (W) 2,926 10.5 -37.9°
Enters shadow 02:20:12 29° 294° (WNW) 1,827 9.1 -38.5°
Maximum altitude 02:23:15 45° 346° (NNW) 1,381 - -39.1°
Drops below altitude 10° 02:29:35 10° 57° (ENE) 2,759 - -40.2°
Sets 02:32:18 0° 63° (ENE) 3,681 - -40.6°
